Alliance, NE

5:38 AM MDT on August 27, 2016 (GMT -0600)
Alliance Municipal

Weather History for KAIA - January, 2013

Change the Weather History Date:

Saturday, January 5, 2013

  Actual Average Record
Temperature  
Mean Temperature 22 °F 24 °F  
Max Temperature 39 °F 38 °F 67 °F (2012)
Min Temperature 5 °F 9 °F -29 °F (2004)
Degree Days  
Heating Degree Days 43 41  
Month to date heating degree days 226 208  
Since 1 July heating degree days 3030 3290  
Cooling Degree Days 0 0  
Month to date cooling degree days 0 0  
Year to date cooling degree days 0 0  
Moisture  
Dew Point 13 °F    
Average Humidity 68    
Maximum Humidity 88    
Minimum Humidity 48    
Precipitation  
Precipitation 0.00 in 0.01 in 0.41 in (1955)
Month to date precipitation T 0.03  
Year to date precipitation T 0.03  
Sea Level Pressure  
Sea Level Pressure 30.27 in    
Wind  
Wind Speed 14 mph (WNW)    
Max Wind Speed 30 mph    
Max Gust Speed 38 mph    
Visibility 10 miles    
Events      
T = Trace of Precipitation, MM = Missing Value Source: NWS Daily Summary

Daily Weather History Graph

Daily Weather History Graph

Search for Another Location

Airport or City:

Trip Planner

Search our weather history database for the weather conditions in past years. The results will help you decide how hot, cold, wet, or windy it might be!

Date:

Astronomy

Jan. 05, 2013 Rise Set
Actual Time 7:19 AM MST 4:34 PM MST
Civil Twilight 6:48 AM MST 5:05 PM MST
Nautical Twilight 6:13 AM MST 5:40 PM MST
Astronomical Twilight 5:39 AM MST 6:14 PM MST
Moon 12:24 AM MST (1/5) 11:28 AM MST (1/5)
Length of Visible Light 10h 17m
Length of Day
9h 14m
Last Quarter, 43% of the Moon is Illuminated
Jan 5
Last Quarter
Jan 11
New
Jan 18
First Quarter
Jan 26
Full
Feb 3
Last Quarter

Hourly Weather History & Observations

Time (MST) Temp. Windchill Dew Point Humidity Pressure Visibility Wind Dir Wind Speed Gust Speed Precip Events Conditions
12:53 AM 10.0 °F -3.7 °F 5.0 °F 80% 30.11 in 10.0 mi WNW 10.4 mph - N/A   Clear
1:53 AM 10.0 °F -3.7 °F 5.0 °F 80% 30.13 in 10.0 mi WNW 10.4 mph - N/A   Clear
2:53 AM 6.8 °F - 1.4 °F 79% 30.04 in 10.0 mi Calm Calm - N/A   Clear
3:53 AM 10.0 °F -2.9 °F 3.9 °F 76% 30.15 in 10.0 mi WNW 9.2 mph - N/A   Clear
4:53 AM 8.1 °F -5.3 °F 3.0 °F 80% 30.19 in 10.0 mi WNW 9.2 mph - N/A   Clear
5:53 AM 7.0 °F -5.7 °F 1.9 °F 80% 30.25 in 10.0 mi West 8.1 mph - N/A   Clear
6:53 AM 9.0 °F -0.9 °F 5.0 °F 84% 30.27 in 10.0 mi West 5.8 mph - N/A   Clear
7:53 AM 15.1 °F 2.5 °F 10.0 °F 80% 30.27 in 10.0 mi West 10.4 mph - N/A   Clear
8:53 AM 23.0 °F 10.6 °F 16.0 °F 74% 30.30 in 10.0 mi West 13.8 mph - N/A   Clear
9:53 AM 34.0 °F 23.4 °F 19.9 °F 56% 30.27 in 10.0 mi NW 17.3 mph - N/A   Clear
10:53 AM 36.0 °F 25.0 °F 21.0 °F 55% 30.27 in 10.0 mi WNW 20.7 mph 26.5 mph N/A   Clear
11:53 AM 37.0 °F 26.2 °F 21.0 °F 52% 30.27 in 10.0 mi WNW 21.9 mph 28.8 mph N/A   Clear
12:53 PM 39.0 °F 27.4 °F 21.0 °F 49% 30.23 in 10.0 mi NW 28.8 mph 38.0 mph N/A   Clear
1:53 PM 37.9 °F 26.8 °F 21.0 °F 51% 30.24 in 10.0 mi NW 24.2 mph 35.7 mph N/A   Clear
2:53 PM 37.0 °F 25.1 °F 19.9 °F 50% 30.28 in 10.0 mi WNW 26.5 mph 32.2 mph N/A   Clear
3:53 PM 35.1 °F 24.5 °F 21.9 °F 59% 30.29 in 10.0 mi WNW 18.4 mph - N/A   Clear
4:53 PM 32.0 °F 21.2 °F 19.9 °F 61% 30.32 in 10.0 mi WNW 16.1 mph - N/A   Clear
5:53 PM 26.1 °F 15.6 °F 19.0 °F 75% 30.37 in 10.0 mi WNW 11.5 mph - N/A   Clear
6:53 PM 27.0 °F 16.1 °F 19.0 °F 72% 30.37 in 10.0 mi WNW 12.7 mph - N/A   Clear
7:53 PM 25.0 °F 13.6 °F 17.1 °F 72% 30.36 in 10.0 mi WNW 12.7 mph - N/A   Clear
8:53 PM 16.0 °F 3.6 °F 12.0 °F 84% 30.37 in 10.0 mi WSW 10.4 mph - N/A   Clear
9:53 PM 15.1 °F 2.5 °F 10.9 °F 84% 30.35 in 10.0 mi West 10.4 mph - N/A   Clear
10:53 PM 14.0 °F 2.0 °F 9.0 °F 80% 30.35 in 10.0 mi West 9.2 mph - N/A   Clear
11:53 PM 10.9 °F -2.6 °F 7.0 °F 84% 30.35 in 10.0 mi West 10.4 mph - N/A   Clear